Change the Weather History Date:

Wednesday, December 25, 2013

  Actual Average Record
Temperature  
Mean Temperature 30 °F -  
Max Temperature 43 °F 39 °F 44 °F (2014)
Min Temperature 16 °F 14 °F -2 °F (2012)
Degree Days  
Heating Degree Days 36    
Moisture  
Dew Point 14 °F    
Average Humidity 60    
Maximum Humidity 94    
Minimum Humidity 28    
Precipitation  
Precipitation 0.00 in - - ()
Sea Level Pressure  
Sea Level Pressure 30.32 in    
Wind  
Wind Speed 9 mph (West)    
Max Wind Speed 18 mph    
Max Gust Speed 24 mph    
Visibility 10 miles    
Events      
Averages and records for this station are not official NWS values.
T = Trace of Precipitation, MM = Missing Value Source: NWS Daily Summary

Daily Weather History Graph

Daily Weather History Graph

Search for Another Location

Airport or City:

Trip Planner

Search our weather history database for the weather conditions in past years. The results will help you decide how hot, cold, wet, or windy it might be!

Date:

Astronomy

Dec. 25, 2013 Rise Set
Actual Time 8:06 AM CST 5:28 PM CST
Civil Twilight 7:36 AM CST 5:58 PM CST
Nautical Twilight 7:02 AM CST 6:32 PM CST
Astronomical Twilight 6:29 AM CST 7:05 PM CST
Moon 12:37 AM CST (12/25) 12:32 PM CST (12/25)
Length of Visible Light 10h 22m
Length of Day
9h 21m
Waning Gibbous, 48% of the Moon is Illuminated
Dec 25
Waning Gibbous
Jan 1
New
Jan 7
First Quarter
Jan 15
Full
Jan 23
Last Quarter

Hourly Weather History & Observations

Time (CST) Temp. Windchill Dew Point Humidity Pressure Visibility Wind Dir Wind Speed Gust Speed Precip Events Conditions
12:15 AM 25.3 °F 18.5 °F 23.7 °F 94% 30.30 in 10.0 mi West 5.8 mph - N/A   Clear
12:35 AM 25.7 °F 17.1 °F 23.7 °F 92% 30.29 in 10.0 mi West 8.1 mph - N/A   Clear
12:55 AM 24.6 °F 16.7 °F 22.8 °F 93% 30.29 in 10.0 mi West 6.9 mph - N/A   Clear
1:15 AM 24.4 °F 15.6 °F 21.9 °F 90% 30.29 in 10.0 mi West 8.1 mph - N/A   Clear
1:35 AM 23.0 °F 13.1 °F 20.5 °F 90% 30.30 in 10.0 mi West 9.2 mph - N/A   Clear
1:55 AM 23.0 °F 13.9 °F 20.1 °F 89% 30.29 in 10.0 mi WSW 8.1 mph - N/A   Clear
2:15 AM 22.3 °F 13.9 °F 19.2 °F 88% 30.30 in 10.0 mi West 6.9 mph - N/A   Clear
2:35 AM 22.1 °F 12.8 °F 18.9 °F 87% 30.30 in 10.0 mi West 8.1 mph - N/A   Clear
2:55 AM 19.4 °F 10.4 °F 16.0 °F 87% 30.31 in 10.0 mi WSW 6.9 mph - N/A   Clear
3:15 AM 18.0 °F 6.9 °F 14.9 °F 88% 30.31 in 10.0 mi WSW 9.2 mph - N/A   Clear
3:35 AM 19.8 °F 9.1 °F 16.7 °F 88% 30.31 in 10.0 mi WSW 9.2 mph - N/A   Clear
3:55 AM 18.5 °F 7.5 °F 15.6 °F 89% 30.31 in 10.0 mi WSW 9.2 mph - N/A   Clear
4:15 AM 18.9 °F 8.8 °F 15.8 °F 88% 30.31 in 10.0 mi WSW 8.1 mph - N/A   Clear
4:35 AM 18.5 °F 8.4 °F 15.4 °F 88% 30.30 in 10.0 mi SW 8.1 mph - N/A   Clear
4:55 AM 18.3 °F 8.2 °F 14.9 °F 86% 30.31 in 10.0 mi WSW 8.1 mph - N/A   Clear
5:15 AM 16.9 °F 5.5 °F 13.8 °F 88% 30.31 in 10.0 mi WSW 9.2 mph - N/A   Clear
5:35 AM 17.1 °F 6.6 °F 14.0 °F 88% 30.32 in 10.0 mi WSW 8.1 mph - N/A   Clear
5:55 AM 18.3 °F 6.6 °F 15.1 °F 87% 30.32 in 10.0 mi SW 10.4 mph - N/A   Clear
6:15 AM 18.9 °F 8.0 °F 14.7 °F 84% 30.32 in 10.0 mi SW 9.2 mph - N/A   Clear
6:35 AM 17.6 °F 8.2 °F 13.5 °F 84% 30.33 in 10.0 mi WSW 6.9 mph - N/A   Clear
6:55 AM 19.4 °F 10.4 °F 13.8 °F 79% 30.33 in 10.0 mi WSW 6.9 mph - N/A   Clear
7:15 AM 25.0 °F 13.1 °F 16.3 °F 70% 30.33 in 10.0 mi West 13.8 mph - N/A   Clear
7:35 AM 24.4 °F 14.2 °F 15.8 °F 70% 30.34 in 10.0 mi West 10.4 mph - N/A   Clear
7:55 AM 23.9 °F 12.9 °F 15.6 °F 71% 30.35 in 10.0 mi West 11.5 mph - N/A   Clear
8:15 AM 23.5 °F 12.4 °F 15.6 °F 72% 30.35 in 10.0 mi West 11.5 mph 17.3 mph N/A   Clear
8:35 AM 24.4 °F 13.0 °F 15.8 °F 70% 30.36 in 10.0 mi WNW 12.7 mph - N/A   Clear
8:55 AM 24.8 °F 15.3 °F 16.3 °F 70% 30.36 in 10.0 mi West 9.2 mph - N/A   Clear
9:15 AM 28.0 °F 18.1 °F 18.0 °F 66% 30.37 in 10.0 mi WNW 11.5 mph - N/A   Clear
9:35 AM 30.7 °F 22.0 °F 18.9 °F 61% 30.39 in 10.0 mi WNW 10.4 mph - N/A   Clear
9:55 AM 32.2 °F 23.2 °F 19.0 °F 58% 30.39 in 10.0 mi NW 11.5 mph 18.4 mph N/A   Clear
10:15 AM 34.3 °F 25.0 °F 19.6 °F 55% 30.39 in 10.0 mi NW 13.8 mph - N/A   Clear
10:35 AM 36.3 °F 26.4 °F 18.1 °F 48% 30.40 in 10.0 mi NW 17.3 mph 20.7 mph N/A   Clear
10:55 AM 38.3 °F 30.1 °F 16.7 °F 42% 30.40 in 10.0 mi NW 13.8 mph - N/A   Clear
11:15 AM 39.2 °F 29.8 °F 14.9 °F 37% 30.40 in 10.0 mi NNW 18.4 mph 21.9 mph N/A   Clear
11:35 AM 40.1 °F 31.3 °F 14.0 °F 35% 30.39 in 10.0 mi NW 17.3 mph 23.0 mph N/A   Clear
11:55 AM 40.8 °F 32.0 °F 13.8 °F 33% 30.39 in 10.0 mi NW 18.4 mph 23.0 mph N/A   Clear
12:15 PM 41.5 °F 33.2 °F 14.0 °F 33% 30.39 in 10.0 mi NW 17.3 mph 21.9 mph N/A   Clear
12:35 PM 41.9 °F 34.6 °F 14.7 °F 33% 30.38 in 10.0 mi NNW 13.8 mph - N/A   Clear
12:55 PM 42.8 °F 35.4 °F 13.5 °F 30% 30.37 in 10.0 mi NNW 15.0 mph 23.0 mph N/A   Clear
1:15 PM 43.5 °F 35.5 °F 12.4 °F 28% 30.36 in 10.0 mi NNW 18.4 mph 24.2 mph N/A   Clear
1:35 PM 43.0 °F 35.7 °F 12.7 °F 29% 30.35 in 10.0 mi North 15.0 mph 21.9 mph N/A   Clear
1:55 PM 43.7 °F 37.3 °F 12.7 °F 29% 30.34 in 10.0 mi NNW 12.7 mph 17.3 mph N/A   Clear
2:15 PM 43.7 °F 37.7 °F 12.9 °F 29% 30.34 in 10.0 mi North 11.5 mph 18.4 mph N/A   Clear
2:35 PM 43.9 °F 38.8 °F 12.4 °F 28% 30.34 in 10.0 mi NW 9.2 mph 18.4 mph N/A   Clear
2:55 PM 43.9 °F 37.9 °F 12.4 °F 28% 30.33 in 10.0 mi NNW 11.5 mph 16.1 mph N/A   Clear
3:15 PM 43.9 °F 38.8 °F 12.6 °F 28% 30.33 in 10.0 mi NNW 9.2 mph - N/A   Clear
3:35 PM 43.7 °F 40.3 °F 12.0 °F 28% 30.33 in 10.0 mi NW 5.8 mph 9.2 mph N/A   Clear
3:55 PM 43.3 °F 38.1 °F 12.0 °F 28% 30.33 in 10.0 mi NNW 9.2 mph - N/A   Clear
4:15 PM 43.2 °F 39.0 °F 12.0 °F 28% 30.32 in 10.0 mi West 6.9 mph - N/A   Clear
4:35 PM 42.8 °F 40.1 °F 11.8 °F 28% 30.32 in 10.0 mi West 4.6 mph - N/A   Clear
4:55 PM 41.5 °F 39.6 °F 11.8 °F 30% 30.31 in 10.0 mi West 3.5 mph - N/A   Clear
5:15 PM 39.7 °F 36.5 °F 11.3 °F 31% 30.31 in 10.0 mi West 4.6 mph - N/A   Clear
5:35 PM 38.3 °F 34.8 °F 11.3 °F 33% 30.30 in 10.0 mi WSW 4.6 mph - N/A   Clear
5:55 PM 36.5 °F 31.8 °F 11.3 °F 35% 30.30 in 10.0 mi SW 5.8 mph - N/A   Clear
6:15 PM 32.0 °F 25.6 °F 11.1 °F 42% 30.30 in 10.0 mi SW 6.9 mph - N/A   Clear
6:35 PM 28.4 °F 21.2 °F 11.3 °F 49% 30.30 in 10.0 mi SSW 6.9 mph - N/A   Clear
6:55 PM 27.5 °F 19.3 °F 11.5 °F 51% 30.30 in 10.0 mi SSW 8.1 mph - N/A   Clear
7:15 PM 26.4 °F 19.8 °F 11.3 °F 53% 30.30 in 10.0 mi SW 5.8 mph - N/A   Clear
7:35 PM 25.2 °F 17.3 °F 11.1 °F 55% 30.29 in 10.0 mi SW 6.9 mph - N/A   Clear
7:55 PM 25.3 °F 18.5 °F 11.1 °F 55% 30.29 in 10.0 mi SW 5.8 mph - N/A   Clear
8:15 PM 24.3 °F 14.6 °F 11.5 °F 58% 30.29 in 10.0 mi SW 9.2 mph - N/A   Clear
8:35 PM 24.4 °F 14.9 °F 11.8 °F 59% 30.29 in 10.0 mi SW 9.2 mph - N/A   Clear
8:55 PM 25.2 °F 15.1 °F 12.4 °F 58% 30.29 in 10.0 mi SW 10.4 mph - N/A   Clear
9:15 PM 24.4 °F 14.9 °F 12.2 °F 60% 30.29 in 10.0 mi SW 9.2 mph - N/A   Clear
9:35 PM 22.6 °F 14.3 °F 11.8 °F 63% 30.28 in 10.0 mi SW 6.9 mph - N/A   Clear
9:55 PM 22.3 °F 12.2 °F 11.7 °F 64% 30.26 in 10.0 mi SW 9.2 mph - N/A   Clear
10:15 PM 21.9 °F 13.4 °F 11.1 °F 63% 30.26 in 10.0 mi SW 6.9 mph - N/A   Clear
10:35 PM 21.0 °F 10.6 °F 10.8 °F 65% 30.25 in 10.0 mi WSW 9.2 mph - N/A   Clear
10:55 PM 21.0 °F 10.6 °F 10.8 °F 65% 30.24 in 10.0 mi SW 9.2 mph - N/A   Clear
11:15 PM 21.0 °F 9.9 °F 11.3 °F 66% 30.24 in 10.0 mi SW 10.4 mph - N/A   Clear
11:35 PM 19.4 °F 10.4 °F 10.2 °F 68% 30.23 in 10.0 mi SW 6.9 mph - N/A   Clear
11:55 PM 19.9 °F 9.3 °F 10.4 °F 67% 30.23 in 10.0 mi WSW 9.2 mph - N/A   Clear